This is the latest recevied weather packets stored in our database for station/object KC8PTQ. If no packets are shown the sender has not sent any weather packets the latest 10 day(s).
| Time | Temp. | Humidity | Pressure | Rain* | Wind** | Luminosity | Snow |
|---|---|---|---|---|---|---|---|
| 1778273519 | 11.67° C | 90% | 1011.3 hPa | 0 mm | - | 66 W/m² | - |
| 1778273215 | 11.67° C | 88% | 1011.4 hPa | 0 mm | - | 43 W/m² | - |
| 1778272911 | 11.67° C | 87% | 1011.4 hPa | 0 mm | - | 40 W/m² | - |
| 1778272608 | 12.22° C | 85% | 1011.4 hPa | 0 mm | - | 52 W/m² | - |
| 1778272304 | 12.22° C | 87% | 1011.6 hPa | 0 mm | - | 77 W/m² | - |
| 1778272000 | 12.22° C | 87% | 1011.8 hPa | 0 mm | - | 101 W/m² | - |
| 1778271698 | 12.22° C | 88% | 1011.8 hPa | 0 mm | - | 124 W/m² | - |
| 1778271394 | 12.22° C | 87% | 1012.1 hPa | 0 mm | - | 118 W/m² | - |
| 1778271091 | 11.67° C | 88% | 1012.2 hPa | 0 mm | - | 96 W/m² | - |
| 1778270787 | 12.22° C | 91% | 1012.1 hPa | 0 mm | - | 239 W/m² | - |
| 1778270484 | 11.11° C | 93% | 1012.2 hPa | 0 mm | - | 183 W/m² | - |
| 1778270181 | 11.11° C | 93% | 1012.4 hPa | 0 mm | - | 60 W/m² | - |
| 1778269877 | 11.11° C | 93% | 1012.5 hPa | 1.78 mm | - | 40 W/m² | - |
| 1778269573 | 11.11° C | 93% | 1012.7 hPa | 1.78 mm | - | 41 W/m² | - |
| 1778269271 | 11.11° C | 92% | 1012.6 hPa | 0 mm | - | 65 W/m² | - |
| 1778268968 | 10.56° C | 92% | 1012.6 hPa | 0 mm | - | 83 W/m² | - |
| 1778268664 | 11.11° C | 93% | 1012.8 hPa | 0 mm | - | 70 W/m² | - |
| 1778268361 | 10.56° C | 92% | 1013 hPa | 0 mm | - | 82 W/m² | - |
| 1778268058 | 10.56° C | 91% | 1012.9 hPa | 1.78 mm | - | 49 W/m² | - |
| 1778267754 | 10.56° C | 90% | 1012.9 hPa | 1.78 mm | - | 28 W/m² | - |
| 1778267452 | 10.56° C | 89% | 1012.9 hPa | 0 mm | - | 48 W/m² | - |
| 1778267149 | 11.11° C | 86% | 1013 hPa | 0 mm | - | 32 W/m² | - |
| 1778266845 | 11.11° C | 85% | 1012.9 hPa | 0 mm | - | 27 W/m² | - |
| 1778266543 | 11.67° C | 84% | 1012.7 hPa | 0 mm | - | 84 W/m² | - |
| 1778266240 | 12.22° C | 83% | 1012.6 hPa | 0 mm | - | 154 W/m² | - |
* Rain latest hour (hover to see other rain measurements)
** Current wind speed in m/s (hover to see current wind gust speed)